STARLINK-35879, 66960

Orbit data source: Space-Track

STARLINK-35879, 66960 is a payload satellite owned by SpaceX/Seattle (US) in LEO that was launched on Mon, 08 Dec 2025 UTC via an FALCON 9 launch vehicle from the Air Force Eastern Test Range (AFETR). Payload-class satellites include a variety of spacecraft equipped with specific instruments for various scientific and technological missions. These include communications satellites like Starlink; space stations such as the ISS; scientific satellites like the Hubble; Earth observation satellites from companies like Planet Labs, Umbra, and HawkEye 360; GPS; miniature CubeSats for education and research; and military/defense satellites.

Loading next visibility...
Identifier
66960, 2025-288B
Orbit
LEO
Country
Flag of USUS
Related business
Manufacturer
SpaceX/Seattle
Mission
Operational Commercial Communications
Bus & Motor
STARLINK V2MO, Unknown motor
Mass
575 kg wet, ~530 kg dry
Launch date (UTC)
2025-12-08 (7 months ago)
Launch vehicle
FALCON 9
Launch site
Air Force Eastern Test Range (AFETR)
Object type
Payload
Rocket body
Debris
Shape & HBR
Box + 2 Pan, 17.7 m
Radar Cross Section
36.964 m², Large (>1 m²)

Expand to show TLE details & history
Last TLE update: 1 day ago

TLE from 1 day ago
0 STARLINK-35879
1 66960U 25288B   26176.95072705  .00016259  00000-0  59869-3 0  9992
2 66960  42.9973 132.1262 0001722 271.8818  88.1836 15.27600462 31840
Epoch: 2026-06-25T22:49Z
TLE epoch observation values (Epoch: 2026-06-25T22:49:02.817Z)
Latitude
-0.00003°
Longitude
-124.2218°
Altitude
482.726 km
Speed
7.626 km/s
True Right ascension
08h 48m 30s
True Declination
0° 00' 00"
Sunlit
Object was in daylight at epoch
Visualization orbit readout
Latitude
Unknown
Longitude
Unknown
Altitude
Unknown
Speed
Unknown
Apparent Right ascension
Unknown
Apparent Declination
Unknown
Sunlit
N/A
Visualization observer readout
Local Sidereal Time
10:39:39
Azimuth
Unknown
Elevation
Unknown
Doppler factor
Unknown
Orbital elements
Apogee altitude
486.115 km
Perigee altitude
483.752 km
Semi-major axis
6,863.07 km
Eccentricity
0.00017
Inclination
42.9973°
RAAN
132.1262°
Arg. of periapsis
271.8818°
True anomaly
88.20332°
Mean anomaly
88.1836°
Eccentric anomaly
88.19346°
Mean motion
3.81738 °/min
Orbital period
94.31 mins
BSTAR
0.00059869
Loading maneuver chart data...
Computing Atmospheric mass density...
Loading historical data...
Loading historical data...
Loading historical data...
Loading historical data...
Loading historical data...
Loading historical data...
Loading historical data...

Documentation

Showing up to 5 results
|